| time (UTC) | temp F | wind direction | speed MPH | gust MPH | rain 1hr in | rain 24hr in | rain mn in | humidity % | barometer mb |
| 20260901190101 | 93 | 0 | 0.0 | 4.0 | 0.00 | 0.00 | 0.00 | 52 | 1020.4 |
| 20260901185553 | 93 | 0 | 1.0 | 9.0 | 0.00 | 0.00 | 0.00 | 51 | 1020.5 |
| 20260901185052 | 93 | 360 | 2.0 | 9.0 | 0.00 | 0.00 | 0.00 | 52 | 1020.4 |
| 20260901184602 | 93 | 360 | 3.0 | 9.0 | 0.00 | 0.00 | 0.00 | 52 | 1020.4 |
| 20260901184052 | 92 | 360 | 3.0 | 8.0 | 0.00 | 0.00 | 0.00 | 51 | 1020.5 |
| 20260901183552 | 92 | 360 | 2.0 | 6.0 | 0.00 | 0.00 | 0.00 | 50 | 1020.6 |
| 20260901183104 | 92 | 0 | 0.0 | 4.0 | 0.00 | 0.00 | 0.00 | 52 | 1020.6 |
| 20260901182554 | 92 | 360 | 0.0 | 3.0 | 0.00 | 0.00 | 0.00 | 52 | 1020.7 |
| 20260901182053 | 92 | 0 | 0.0 | 5.0 | 0.00 | 0.00 | 0.00 | 52 | 1020.8 |
| 20260901181610 | 92 | 0 | 1.0 | 8.0 | 0.00 | 0.00 | 0.00 | 50 | 1020.8 |
| 20260901181052 | 92 | 0 | 2.0 | 8.0 | 0.00 | 0.00 | 0.00 | 51 | 1020.9 |
| 20260901180553 | 92 | 360 | 1.0 | 8.0 | 0.00 | 0.00 | 0.00 | 51 | 1020.9 |
| 20260901175553 | 92 | 360 | 1.0 | 5.0 | 0.00 | 0.00 | 0.00 | 53 | 1020.9 |
| 20260901175052 | 92 | 0 | 1.0 | 5.0 | 0.00 | 0.00 | 0.00 | 54 | 1021.0 |
| 20260901174605 | 91 | 360 | 1.0 | 5.0 | 0.00 | 0.00 | 0.00 | 54 | 1021.0 |
| 20260901174052 | 91 | 360 | 1.0 | 5.0 | 0.00 | 0.00 | 0.00 | 53 | 1021.0 |
| 20260901173552 | 91 | 360 | 1.0 | 5.0 | 0.00 | 0.00 | 0.00 | 55 | 1021.1 |
| 20260901173106 | 91 | 360 | 1.0 | 5.0 | 0.00 | 0.00 | 0.00 | 55 | 1021.1 |
| 20260901172552 | 90 | 0 | 1.0 | 6.0 | 0.00 | 0.00 | 0.00 | 57 | 1021.3 |
| 20260901172054 | 90 | 360 | 2.0 | 6.0 | 0.00 | 0.00 | 0.00 | 59 | 1021.3 |
| 20260901171607 | 90 | 360 | 0.0 | 4.0 | 0.00 | 0.00 | 0.00 | 60 | 1021.4 |
| 20260901171052 | 90 | 0 | 1.0 | 4.0 | 0.00 | 0.00 | 0.00 | 59 | 1021.5 |
| 20260901170555 | 90 | 360 | 0.0 | 3.0 | 0.00 | 0.00 | 0.00 | 60 | 1021.5 |
| 20260901170109 | 90 | 0 | 1.0 | 3.0 | 0.00 | 0.00 | 0.00 | 59 | 1021.6 |
| 20260901165619 | 89 | 0 | 0.0 | 4.0 | 0.00 | 0.00 | 0.00 | 60 | 1021.7 |
| 20260901165052 | 89 | 0 | 0.0 | 5.0 | 0.00 | 0.00 | 0.00 | 59 | 1021.8 |
| 20260901164600 | 89 | 360 | 2.0 | 5.0 | 0.00 | 0.00 | 0.00 | 60 | 1021.9 |
| 20260901164054 | 89 | 0 | 1.0 | 4.0 | 0.00 | 0.00 | 0.00 | 61 | 1021.8 |
| 20260901163552 | 89 | 360 | 0.0 | 2.0 | 0.00 | 0.00 | 0.00 | 63 | 1021.9 |
| 20260901163112 | 88 | 0 | 0.0 | 4.0 | 0.00 | 0.00 | 0.00 | 62 | 1022.0 |
| 20260901162556 | 88 | 0 | 1.0 | 5.0 | 0.00 | 0.00 | 0.00 | 62 | 1022.0 |
| 20260901162053 | 88 | 0 | 2.0 | 5.0 | 0.00 | 0.00 | 0.00 | 63 | 1022.0 |
| 20260901161612 | 87 | 76 | 0.0 | 4.0 | 0.00 | 0.00 | 0.00 | 63 | 1022.1 |
| 20260901161052 | 87 | 0 | 0.0 | 4.0 | 0.00 | 0.00 | 0.00 | 64 | 1022.2 |
| 20260901160555 | 87 | 350 | 0.0 | 4.0 | 0.00 | 0.00 | 0.00 | 65 | 1022.2 |
| 20260901160110 | 87 | 304 | 1.0 | 4.0 | 0.00 | 0.00 | 0.00 | 65 | 1022.2 |
| 20260901155552 | 87 | 291 | 0.0 | 3.0 | 0.00 | 0.00 | 0.00 | 66 | 1022.2 |
| 20260901155057 | 87 | 0 | 0.0 | 3.0 | 0.00 | 0.00 | 0.00 | 66 | 1022.4 |
| 20260901154609 | 86 | 335 | 0.0 | 3.0 | 0.00 | 0.00 | 0.00 | 67 | 1022.4 |
| 20260901154052 | 86 | 0 | 0.0 | 2.0 | 0.00 | 0.00 | 0.00 | 67 | 1022.4 |
| 20260901153552 | 86 | 318 | 0.0 | 2.0 | 0.00 | 0.00 | 0.00 | 66 | 1022.5 |
| 20260901153105 | 86 | 0 | 0.0 | 3.0 | 0.00 | 0.00 | 0.00 | 68 | 1022.4 |
| 20260901152552 | 86 | 248 | 0.0 | 3.0 | 0.00 | 0.00 | 0.00 | 70 | 1022.4 |
| 20260901152052 | 86 | 0 | 0.0 | 3.0 | 0.00 | 0.00 | 0.00 | 70 | 1022.5 |
| 20260901151607 | 86 | 0 | 1.0 | 3.0 | 0.00 | 0.00 | 0.00 | 70 | 1022.6 |
| 20260901151057 | 86 | 0 | 0.0 | 2.0 | 0.00 | 0.00 | 0.00 | 70 | 1022.5 |
| 20260901150552 | 86 | 0 | 0.0 | 3.0 | 0.00 | 0.00 | 0.00 | 71 | 1022.5 |
| 20260901150107 | 85 | 10 | 0.0 | 3.0 | 0.00 | 0.00 | 0.00 | 71 | 1022.6 |
| 20260901145552 | 85 | 13 | 1.0 | 3.0 | 0.00 | 0.00 | 0.00 | 72 | 1022.5 |
| 20260901145051 | 85 | 0 | 1.0 | 3.0 | 0.00 | 0.00 | 0.00 | 72 | 1022.7 |
| 20260901144601 | 85 | 0 | 0.0 | 0.0 | 0.00 | 0.00 | 0.00 | 72 | 1022.5 |
| 20260901144051 | 84 | 0 | 0.0 | 3.0 | 0.00 | 0.00 | 0.00 | 73 | 1022.6 |
| 20260901143553 | 84 | 0 | 0.0 | 3.0 | 0.00 | 0.00 | 0.00 | 73 | 1022.4 |
| 20260901143101 | 84 | 0 | 1.0 | 3.0 | 0.00 | 0.00 | 0.00 | 73 | 1022.5 |
| 20260901142553 | 84 | 0 | 0.0 | 5.0 | 0.00 | 0.00 | 0.00 | 74 | 1022.5 |
| 20260901142053 | 83 | 0 | 1.0 | 5.0 | 0.00 | 0.00 | 0.00 | 75 | 1022.6 |
| 20260901141602 | 82 | 360 | 1.0 | 4.0 | 0.00 | 0.00 | 0.00 | 76 | 1022.6 |
| 20260901141052 | 82 | 0 | 0.0 | 2.0 | 0.00 | 0.00 | 0.00 | 77 | 1022.3 |
| 20260901140552 | 81 | 360 | 0.0 | 2.0 | 0.00 | 0.00 | 0.00 | 78 | 1022.6 |
| 20260901140108 | 80 | 0 | 0.0 | 2.0 | 0.00 | 0.00 | 0.00 | 80 | 1022.6 |
| 20260901135553 | 80 | 0 | 0.0 | 3.0 | 0.00 | 0.00 | 0.00 | 80 | 1022.6 |
| 20260901135052 | 79 | 0 | 0.0 | 3.0 | 0.00 | 0.00 | 0.00 | 81 | 1022.6 |
| 20260901134603 | 79 | 360 | 0.0 | 3.0 | 0.00 | 0.00 | 0.00 | 83 | 1022.5 |
| 20260901134052 | 78 | 360 | 1.0 | 3.0 | 0.00 | 0.00 | 0.00 | 84 | 1022.5 |
| 20260901133552 | 77 | 0 | 0.0 | 2.0 | 0.00 | 0.00 | 0.00 | 84 | 1022.4 |
| 20260901133059 | 77 | 0 | 0.0 | 1.0 | 0.00 | 0.00 | 0.00 | 86 | 1022.4 |
| 20260901132555 | 76 | 0 | 0.0 | 0.0 | 0.00 | 0.00 | 0.00 | 87 | 1022.5 |
| 20260901132052 | 76 | 0 | 0.0 | 0.0 | 0.00 | 0.00 | 0.00 | 88 | 1022.6 |
| 20260901131602 | 75 | 0 | 0.0 | 0.0 | 0.00 | 0.00 | 0.00 | 88 | 1022.5 |
| 20260901131052 | 74 | 0 | 0.0 | 0.0 | 0.00 | 0.00 | 0.00 | 89 | 1022.4 |
| 20260901130552 | 74 | 0 | 0.0 | 0.0 | 0.00 | 0.00 | 0.00 | 89 | 1022.6 |
| 20260901130105 | 74 | 0 | 0.0 | 0.0 | 0.00 | 0.00 | 0.00 | 90 | 1022.5 |
| 20260901125551 | 73 | 0 | 0.0 | 0.0 | 0.00 | 0.00 | 0.00 | 91 | 1022.6 |
| 20260901125051 | 73 | 0 | 0.0 | 0.0 | 0.00 | 0.00 | 0.00 | 91 | 1022.5 |
| 20260901124602 | 72 | 0 | 0.0 | 0.0 | 0.00 | 0.00 | 0.00 | 91 | 1022.5 |
| 20260901124052 | 72 | 0 | 0.0 | 0.0 | 0.00 | 0.00 | 0.00 | 91 | 1022.5 |
| 20260901123552 | 72 | 0 | 0.0 | 0.0 | 0.00 | 0.00 | 0.00 | 91 | 1022.4 |
| 20260901123101 | 72 | 0 | 0.0 | 0.0 | 0.00 | 0.00 | 0.00 | 92 | 1022.4 |
| 20260901122553 | 71 | 0 | 0.0 | 0.0 | 0.00 | 0.00 | 0.00 | 92 | 1022.3 |
| 20260901122053 | 71 | 0 | 0.0 | 0.0 | 0.00 | 0.00 | 0.00 | 92 | 1022.3 |
| 20260901121602 | 71 | 0 | 0.0 | 0.0 | 0.00 | 0.00 | 0.00 | 92 | 1022.2 |
| 20260901121053 | 71 | 0 | 0.0 | 0.0 | 0.00 | 0.00 | 0.00 | 92 | 1022.1 |
| 20260901120552 | 71 | 0 | 0.0 | 0.0 | 0.00 | 0.00 | 0.00 | 92 | 1022.2 |
| 20260901120104 | 71 | 0 | 0.0 | 0.0 | 0.00 | 0.00 | 0.00 | 92 | 1022.0 |
| 20260901115552 | 71 | 0 | 0.0 | 0.0 | 0.00 | 0.00 | 0.00 | 92 | 1022.0 |
| 20260901115053 | 71 | 0 | 0.0 | 0.0 | 0.00 | 0.00 | 0.00 | 92 | 1021.9 |
| 20260901114643 | 70 | 0 | 0.0 | 0.0 | 0.00 | 0.00 | 0.00 | 92 | 1021.8 |
| 20260901114051 | 70 | 0 | 0.0 | 0.0 | 0.00 | 0.00 | 0.00 | 91 | 1021.8 |
| 20260901113552 | 71 | 0 | 0.0 | 0.0 | 0.00 | 0.00 | 0.00 | 91 | 1021.6 |
| 20260901113100 | 71 | 0 | 0.0 | 0.0 | 0.00 | 0.00 | 0.00 | 91 | 1021.5 |
| 20260901112552 | 70 | 0 | 0.0 | 0.0 | 0.00 | 0.00 | 0.00 | 91 | 1021.5 |
| 20260901112052 | 71 | 0 | 0.0 | 0.0 | 0.00 | 0.00 | 0.00 | 91 | 1021.4 |
| 20260901111606 | 71 | 0 | 0.0 | 0.0 | 0.00 | 0.00 | 0.00 | 91 | 1021.5 |
| 20260901111052 | 71 | 0 | 0.0 | 0.0 | 0.00 | 0.00 | 0.00 | 91 | 1021.4 |
| 20260901110552 | 71 | 0 | 0.0 | 0.0 | 0.00 | 0.00 | 0.00 | 91 | 1021.3 |
| 20260901105552 | 71 | 0 | 0.0 | 0.0 | 0.00 | 0.00 | 0.00 | 91 | 1021.2 |
| 20260901105051 | 71 | 0 | 0.0 | 0.0 | 0.00 | 0.00 | 0.00 | 91 | 1021.1 |
| 20260901104603 | 71 | 0 | 0.0 | 0.0 | 0.00 | 0.00 | 0.00 | 91 | 1021.2 |
| 20260901104052 | 71 | 0 | 0.0 | 0.0 | 0.00 | 0.00 | 0.00 | 91 | 1021.0 |
| 20260901103552 | 71 | 0 | 0.0 | 0.0 | 0.00 | 0.00 | 0.00 | 91 | 1021.0 |
| 20260901103106 | 71 | 0 | 0.0 | 0.0 | 0.00 | 0.00 | 0.00 | 91 | 1021.0 |
| 20260901102553 | 71 | 0 | 0.0 | 0.0 | 0.00 | 0.00 | 0.00 | 91 | 1021.0 |
| 20260901102049 | 71 | 0 | 0.0 | 0.0 | 0.00 | 0.00 | 0.00 | 90 | 1021.1 |
| 20260901101606 | 71 | 0 | 0.0 | 0.0 | 0.00 | 0.00 | 0.00 | 90 | 1021.0 |
| 20260901101053 | 71 | 0 | 0.0 | 0.0 | 0.00 | 0.00 | 0.00 | 90 | 1021.0 |
| 20260901100552 | 71 | 0 | 0.0 | 0.0 | 0.00 | 0.00 | 0.00 | 90 | 1021.0 |
| 20260901100110 | 71 | 0 | 0.0 | 0.0 | 0.00 | 0.00 | 0.00 | 90 | 1020.9 |
| 20260901095553 | 71 | 0 | 0.0 | 0.0 | 0.00 | 0.00 | 0.00 | 90 | 1021.0 |
| 20260901095052 | 71 | 0 | 0.0 | 0.0 | 0.00 | 0.00 | 0.00 | 90 | 1020.9 |
| 20260901094603 | 71 | 0 | 0.0 | 0.0 | 0.00 | 0.00 | 0.00 | 90 | 1020.7 |
| 20260901094052 | 71 | 0 | 0.0 | 0.0 | 0.00 | 0.00 | 0.00 | 90 | 1020.9 |
| 20260901093551 | 72 | 0 | 0.0 | 0.0 | 0.00 | 0.00 | 0.00 | 90 | 1020.9 |
| 20260901093105 | 72 | 0 | 0.0 | 0.0 | 0.00 | 0.00 | 0.00 | 90 | 1021.0 |
| 20260901092552 | 72 | 0 | 0.0 | 0.0 | 0.00 | 0.00 | 0.00 | 90 | 1020.9 |
| 20260901092052 | 72 | 0 | 0.0 | 2.0 | 0.00 | 0.00 | 0.00 | 90 | 1020.8 |
| 20260901091617 | 72 | 0 | 0.0 | 2.0 | 0.00 | 0.00 | 0.00 | 89 | 1020.7 |
| 20260901091053 | 72 | 360 | 0.0 | 2.0 | 0.00 | 0.00 | 0.00 | 89 | 1020.7 |
| 20260901090553 | 72 | 0 | 0.0 | 0.0 | 0.00 | 0.00 | 0.00 | 89 | 1020.8 |
| 20260901090105 | 72 | 0 | 0.0 | 0.0 | 0.00 | 0.00 | 0.00 | 89 | 1020.7 |
| 20260901085552 | 72 | 0 | 0.0 | 0.0 | 0.00 | 0.00 | 0.00 | 89 | 1020.6 |
| 20260901085052 | 72 | 0 | 0.0 | 0.0 | 0.00 | 0.00 | 0.00 | 89 | 1020.6 |
| 20260901084605 | 72 | 0 | 0.0 | 1.0 | 0.00 | 0.00 | 0.00 | 89 | 1020.6 |
| 20260901084053 | 72 | 0 | 0.0 | 1.0 | 0.00 | 0.00 | 0.00 | 89 | 1020.6 |
| 20260901083550 | 72 | 0 | 0.0 | 1.0 | 0.00 | 0.00 | 0.00 | 89 | 1020.5 |
| 20260901083106 | 72 | 0 | 0.0 | 0.0 | 0.00 | 0.00 | 0.00 | 89 | 1020.6 |
| 20260901082549 | 72 | 0 | 0.0 | 0.0 | 0.00 | 0.00 | 0.00 | 89 | 1020.5 |
| 20260901082053 | 72 | 0 | 0.0 | 0.0 | 0.00 | 0.00 | 0.00 | 88 | 1020.7 |
| 20260901081603 | 72 | 0 | 0.0 | 0.0 | 0.00 | 0.00 | 0.00 | 88 | 1020.7 |
| 20260901081052 | 73 | 0 | 0.0 | 0.0 | 0.00 | 0.00 | 0.00 | 88 | 1020.5 |
| 20260901080552 | 73 | 0 | 0.0 | 0.0 | 0.00 | 0.00 | 0.00 | 88 | 1020.4 |
| 20260901080107 | 73 | 0 | 0.0 | 0.0 | 0.00 | 0.00 | 0.00 | 88 | 1020.5 |
| 20260901075552 | 73 | 0 | 0.0 | 0.0 | 0.00 | 0.00 | 0.00 | 87 | 1020.5 |
| 20260901075049 | 73 | 0 | 0.0 | 0.0 | 0.00 | 0.00 | 0.00 | 88 | 1020.5 |
| 20260901074603 | 73 | 0 | 0.0 | 0.0 | 0.00 | 0.00 | 0.00 | 88 | 1020.3 |
| 20260901074051 | 73 | 0 | 0.0 | 0.0 | 0.00 | 0.00 | 0.00 | 88 | 1020.4 |
| 20260901073552 | 73 | 0 | 0.0 | 0.0 | 0.00 | 0.00 | 0.00 | 88 | 1020.4 |
| 20260901073106 | 73 | 0 | 0.0 | 0.0 | 0.00 | 0.00 | 0.00 | 87 | 1020.4 |
| 20260901072553 | 73 | 0 | 0.0 | 0.0 | 0.00 | 0.00 | 0.00 | 87 | 1020.3 |
| 20260901072053 | 73 | 0 | 0.0 | 0.0 | 0.00 | 0.00 | 0.00 | 87 | 1020.4 |
| 20260901071604 | 73 | 0 | 0.0 | 0.0 | 0.00 | 0.00 | 0.00 | 87 | 1020.5 |
| 20260901071049 | 73 | 0 | 0.0 | 0.0 | 0.00 | 0.00 | 0.00 | 87 | 1020.4 |
| 20260901070551 | 73 | 0 | 0.0 | 0.0 | 0.00 | 0.00 | 0.00 | 87 | 1020.5 |
| 20260901070114 | 74 | 0 | 0.0 | 0.0 | 0.00 | 0.00 | 0.00 | 86 | 1020.5 |
| 20260901065551 | 74 | 0 | 0.0 | 0.0 | 0.00 | 0.00 | 0.00 | 86 | 1020.4 |
| 20260901065053 | 74 | 0 | 0.0 | 0.0 | 0.00 | 0.00 | 0.00 | 86 | 1020.5 |
| 20260901064604 | 74 | 0 | 0.0 | 0.0 | 0.00 | 0.00 | 0.00 | 86 | 1020.6 |
| 20260901064051 | 74 | 0 | 0.0 | 1.0 | 0.00 | 0.00 | 0.00 | 86 | 1020.6 |
| 20260901063552 | 74 | 0 | 0.0 | 1.0 | 0.00 | 0.00 | 0.00 | 86 | 1020.7 |
| 20260901063101 | 74 | 0 | 0.0 | 1.0 | 0.00 | 0.00 | 0.00 | 85 | 1020.6 |
| 20260901062554 | 74 | 0 | 0.0 | 0.0 | 0.00 | 0.00 | 0.00 | 85 | 1020.8 |
| 20260901062055 | 74 | 0 | 0.0 | 0.0 | 0.00 | 0.00 | 0.00 | 85 | 1020.9 |
| 20260901061605 | 74 | 0 | 0.0 | 0.0 | 0.00 | 0.00 | 0.00 | 85 | 1020.8 |
| 20260901061052 | 74 | 0 | 0.0 | 0.0 | 0.00 | 0.00 | 0.00 | 85 | 1020.7 |
| 20260901060552 | 74 | 0 | 0.0 | 0.0 | 0.00 | 0.00 | 0.00 | 85 | 1020.7 |
| 20260901060107 | 74 | 0 | 0.0 | 0.0 | 0.00 | 0.00 | 0.00 | 85 | 1020.7 |
| 20260901055552 | 75 | 0 | 0.0 | 0.0 | 0.00 | 0.00 | 0.00 | 85 | 1020.7 |
| 20260901055052 | 75 | 0 | 0.0 | 0.0 | 0.00 | 0.00 | 0.00 | 85 | 1020.7 |
| 20260901054602 | 75 | 0 | 0.0 | 0.0 | 0.00 | 0.00 | 0.00 | 84 | 1020.7 |
| 20260901054054 | 75 | 0 | 0.0 | 0.0 | 0.00 | 0.00 | 0.00 | 84 | 1020.7 |
| 20260901053552 | 75 | 0 | 0.0 | 0.0 | 0.00 | 0.00 | 0.00 | 84 | 1020.8 |
| 20260901053116 | 75 | 0 | 0.0 | 1.0 | 0.00 | 0.00 | 0.00 | 84 | 1020.8 |
| 20260901052549 | 75 | 0 | 0.0 | 1.0 | 0.00 | 0.00 | 0.00 | 84 | 1020.9 |
| 20260901052051 | 75 | 0 | 0.0 | 0.0 | 0.00 | 0.00 | 0.00 | 84 | 1020.7 |
| 20260901051606 | 75 | 0 | 0.0 | 0.0 | 0.00 | 0.00 | 0.00 | 84 | 1020.8 |
| 20260901051052 | 75 | 0 | 0.0 | 0.0 | 0.00 | 0.00 | 0.00 | 83 | 1020.8 |
| 20260901050551 | 76 | 0 | 0.0 | 0.0 | 0.00 | 0.00 | 0.00 | 83 | 1020.9 |
| 20260901050108 | 76 | 0 | 0.0 | 0.0 | 0.00 | 0.00 | 0.00 | 83 | 1020.7 |
| 20260901045551 | 76 | 0 | 0.0 | 0.0 | 0.00 | 0.00 | 0.00 | 82 | 1020.8 |
| 20260901045052 | 76 | 0 | 0.0 | 0.0 | 0.00 | 0.00 | 0.00 | 83 | 1020.8 |
| 20260901044609 | 76 | 0 | 0.0 | 0.0 | 0.00 | 0.00 | 0.00 | 82 | 1020.7 |
| 20260901044055 | 76 | 0 | 0.0 | 2.0 | 0.00 | 0.00 | 0.00 | 82 | 1020.6 |
| 20260901043551 | 76 | 0 | 0.0 | 2.0 | 0.00 | 0.00 | 0.00 | 83 | 1020.6 |
| 20260901043104 | 76 | 360 | 1.0 | 2.0 | 0.00 | 0.00 | 0.00 | 83 | 1020.5 |
| 20260901042555 | 76 | 360 | 0.0 | 1.0 | 0.00 | 0.00 | 0.00 | 82 | 1020.6 |
| 20260901042052 | 76 | 0 | 0.0 | 0.0 | 0.00 | 0.00 | 0.00 | 82 | 1020.7 |
| 20260901041605 | 77 | 0 | 0.0 | 0.0 | 0.00 | 0.00 | 0.00 | 82 | 1020.8 |
| 20260901041055 | 77 | 0 | 0.0 | 0.0 | 0.00 | 0.00 | 0.00 | 82 | 1020.7 |
| 20260901040553 | 77 | 0 | 0.0 | 0.0 | 0.00 | 0.00 | 0.00 | 81 | 1020.7 |
| 20260901040106 | 77 | 0 | 0.0 | 1.0 | 0.00 | 0.00 | 0.00 | 81 | 1020.8 |
| 20260901035552 | 77 | 0 | 0.0 | 1.0 | 0.00 | 0.00 | 0.00 | 81 | 1020.7 |
| 20260901035052 | 77 | 360 | 0.0 | 1.0 | 0.00 | 0.00 | 0.00 | 81 | 1020.6 |
| 20260901034604 | 77 | 0 | 0.0 | 0.0 | 0.00 | 0.00 | 0.00 | 81 | 1020.6 |
| 20260901034051 | 78 | 0 | 0.0 | 0.0 | 0.00 | 0.00 | 0.00 | 80 | 1020.7 |
| 20260901033548 | 78 | 0 | 0.0 | 0.0 | 0.00 | 0.00 | 0.00 | 79 | 1020.6 |
| 20260901033118 | 78 | 0 | 0.0 | 1.0 | 0.00 | 0.00 | 0.00 | 79 | 1020.6 |
| 20260901032548 | 78 | 0 | 0.0 | 1.0 | 0.00 | 0.00 | 0.00 | 79 | 1020.5 |
| 20260901032051 | 78 | 0 | 0.0 | 1.0 | 0.00 | 0.00 | 0.00 | 79 | 1020.5 |
| 20260901031601 | 78 | 0 | 0.0 | 0.0 | 0.00 | 0.00 | 0.00 | 78 | 1020.5 |
| 20260901031051 | 79 | 0 | 0.0 | 0.0 | 0.00 | 0.00 | 0.00 | 78 | 1020.6 |
| 20260901030551 | 79 | 0 | 0.0 | 0.0 | 0.00 | 0.00 | 0.00 | 78 | 1020.7 |
| 20260901030108 | 79 | 0 | 0.0 | 0.0 | 0.00 | 0.00 | 0.00 | 77 | 1020.7 |
| 20260901025551 | 79 | 0 | 0.0 | 2.0 | 0.00 | 0.00 | 0.00 | 77 | 1020.6 |
| 20260901025053 | 79 | 0 | 0.0 | 2.0 | 0.00 | 0.00 | 0.00 | 77 | 1020.7 |
| 20260901024603 | 79 | 0 | 0.0 | 1.0 | 0.00 | 0.00 | 0.00 | 76 | 1020.6 |
| 20260901024051 | 80 | 0 | 0.0 | 0.0 | 0.00 | 0.00 | 0.00 | 77 | 1020.6 |
| 20260901023551 | 80 | 0 | 0.0 | 0.0 | 0.00 | 0.00 | 0.00 | 77 | 1020.7 |
| 20260901023102 | 80 | 0 | 0.0 | 0.0 | 0.00 | 0.00 | 0.00 | 77 | 1020.7 |
| 20260901022548 | 80 | 0 | 0.0 | 0.0 | 0.00 | 0.00 | 0.00 | 76 | 1020.6 |
| 20260901022051 | 80 | 0 | 0.0 | 0.0 | 0.00 | 0.00 | 0.00 | 76 | 1020.6 |
| 20260901021605 | 80 | 0 | 0.0 | 0.0 | 0.00 | 0.00 | 0.00 | 76 | 1020.5 |
| 20260901021051 | 80 | 0 | 0.0 | 0.0 | 0.00 | 0.00 | 0.00 | 75 | 1020.6 |
| 20260901020551 | 80 | 0 | 0.0 | 0.0 | 0.00 | 0.00 | 0.00 | 75 | 1020.6 |
| 20260901020058 | 81 | 0 | 0.0 | 0.0 | 0.00 | 0.00 | 0.00 | 74 | 1020.3 |
| 20260901015552 | 81 | 0 | 0.0 | 0.0 | 0.00 | 0.00 | 0.00 | 73 | 1020.2 |
| 20260901015051 | 81 | 0 | 0.0 | 0.0 | 0.00 | 0.00 | 0.00 | 73 | 1020.2 |
| 20260901014559 | 81 | 0 | 0.0 | 0.0 | 0.00 | 0.00 | 0.00 | 73 | 1020.0 |
| 20260901014051 | 82 | 0 | 0.0 | 0.0 | 0.00 | 0.00 | 0.00 | 71 | 1020.0 |
| 20260901013551 | 82 | 0 | 0.0 | 0.0 | 0.00 | 0.00 | 0.00 | 70 | 1020.0 |
| 20260901013113 | 82 | 0 | 0.0 | 0.0 | 0.00 | 0.00 | 0.00 | 70 | 1019.9 |
| 20260901012551 | 82 | 0 | 0.0 | 0.0 | 0.00 | 0.00 | 0.00 | 69 | 1020.0 |
| 20260901012051 | 83 | 0 | 0.0 | 0.0 | 0.00 | 0.00 | 0.00 | 69 | 1020.0 |
| 20260901011618 | 83 | 0 | 0.0 | 2.0 | 0.00 | 0.00 | 0.00 | 69 | 1020.0 |
| 20260901011053 | 83 | 0 | 0.0 | 2.0 | 0.00 | 0.00 | 0.00 | 69 | 1020.0 |
| 20260901010553 | 83 | 0 | 0.0 | 2.0 | 0.00 | 0.00 | 0.00 | 69 | 1019.8 |
| 20260901010114 | 84 | 0 | 0.0 | 2.0 | 0.00 | 0.00 | 0.00 | 68 | 1019.8 |
| 20260901005553 | 84 | 0 | 0.0 | 2.0 | 0.00 | 0.00 | 0.00 | 68 | 1019.7 |
| 20260901005055 | 84 | 360 | 0.0 | 2.0 | 0.00 | 0.00 | 0.00 | 67 | 1019.5 |
| 20260901004607 | 85 | 0 | 0.0 | 2.0 | 0.00 | 0.00 | 0.00 | 67 | 1019.6 |
| 20260901004053 | 85 | 0 | 0.0 | 2.0 | 0.00 | 0.00 | 0.00 | 67 | 1019.5 |
| 20260901003557 | 86 | 360 | 0.0 | 2.0 | 0.00 | 0.00 | 0.00 | 66 | 1019.5 |
| 20260901003106 | 86 | 0 | 0.0 | 1.0 | 0.00 | 0.00 | 0.00 | 65 | 1019.4 |
| 20260901002555 | 87 | 0 | 0.0 | 0.0 | 0.00 | 0.00 | 0.00 | 64 | 1019.4 |
| 20260901002053 | 87 | 0 | 0.0 | 0.0 | 0.00 | 0.00 | 0.00 | 63 | 1019.4 |
| 20260901001604 | 87 | 0 | 0.0 | 0.0 | 0.00 | 0.00 | 0.00 | 62 | 1019.4 |
| 20260901001054 | 88 | 0 | 0.0 | 0.0 | 0.00 | 0.00 | 0.00 | 61 | 1019.4 |
| 20260901000554 | 88 | 0 | 0.0 | 0.0 | 0.00 | 0.00 | 0.00 | 59 | 1019.4 |
| 20260901000107 | 88 | 0 | 0.0 | 0.0 | 0.00 | 0.00 | 0.00 | 59 | 1019.4 |
| 20260831235553 | 89 | 0 | 0.0 | 0.0 | 0.00 | 0.00 | 0.00 | 58 | 1019.4 |
| 20260831235053 | 89 | 0 | 0.0 | 1.0 | 0.00 | 0.00 | 0.00 | 59 | 1019.5 |
| 20260831234604 | 90 | 0 | 0.0 | 1.0 | 0.00 | 0.00 | 0.00 | 58 | 1019.4 |
| 20260831234053 | 90 | 0 | 0.0 | 1.0 | 0.00 | 0.00 | 0.00 | 56 | 1019.4 |
| 20260831233553 | 90 | 0 | 0.0 | 0.0 | 0.00 | 0.00 | 0.00 | 55 | 1019.4 |
| 20260831233106 | 90 | 0 | 0.0 | 1.0 | 0.00 | 0.00 | 0.00 | 55 | 1019.5 |
| 20260831232553 | 91 | 0 | 0.0 | 3.0 | 0.00 | 0.00 | 0.00 | 53 | 1019.4 |
| 20260831232056 | 91 | 0 | 0.0 | 3.0 | 0.00 | 0.00 | 0.00 | 52 | 1019.6 |
| 20260831231610 | 91 | 0 | 1.0 | 3.0 | 0.00 | 0.00 | 0.00 | 51 | 1019.5 |
| 20260831231053 | 91 | 81 | 1.0 | 3.0 | 0.00 | 0.00 | 0.00 | 49 | 1019.4 |
| 20260831230556 | 91 | 52 | 0.0 | 3.0 | 0.00 | 0.00 | 0.00 | 49 | 1019.5 |
| 20260831230117 | 91 | 78 | 1.0 | 3.0 | 0.00 | 0.00 | 0.00 | 48 | 1019.6 |
| 20260831225556 | 91 | 0 | 0.0 | 4.0 | 0.00 | 0.00 | 0.00 | 49 | 1019.6 |
| 20260831225053 | 91 | 0 | 2.0 | 4.0 | 0.00 | 0.00 | 0.00 | 48 | 1019.5 |
| 20260831224602 | 92 | 90 | 0.0 | 4.0 | 0.00 | 0.00 | 0.00 | 48 | 1019.6 |
| 20260831224057 | 92 | 75 | 0.0 | 4.0 | 0.00 | 0.00 | 0.00 | 49 | 1019.6 |
| 20260831223556 | 92 | 0 | 0.0 | 0.0 | 0.00 | 0.00 | 0.00 | 50 | 1019.6 |
| 20260831223114 | 93 | 0 | 0.0 | 2.0 | 0.00 | 0.00 | 0.00 | 52 | 1019.5 |
| 20260831222553 | 93 | 0 | 0.0 | 2.0 | 0.00 | 0.00 | 0.00 | 51 | 1019.6 |
| 20260831222052 | 93 | 0 | 0.0 | 2.0 | 0.00 | 0.00 | 0.00 | 51 | 1019.7 |
| 20260831221608 | 94 | 0 | 1.0 | 2.0 | 0.00 | 0.00 | 0.00 | 52 | 1019.6 |
| 20260831221053 | 94 | 0 | 0.0 | 3.0 | 0.00 | 0.00 | 0.00 | 52 | 1019.6 |
| 20260831220554 | 94 | 0 | 0.0 | 3.0 | 0.00 | 0.00 | 0.00 | 53 | 1019.6 |
| 20260831220112 | 94 | 0 | 0.0 | 2.0 | 0.00 | 0.00 | 0.00 | 51 | 1019.6 |
| 20260831215555 | 93 | 49 | 0.0 | 2.0 | 0.00 | 0.00 | 0.00 | 52 | 1019.6 |
| 20260831215053 | 93 | 0 | 0.0 | 3.0 | 0.00 | 0.00 | 0.00 | 50 | 1019.7 |
| 20260831214611 | 93 | 0 | 1.0 | 4.0 | 0.00 | 0.00 | 0.00 | 48 | 1019.7 |
| 20260831214053 | 93 | 0 | 1.0 | 4.0 | 0.00 | 0.00 | 0.00 | 48 | 1019.7 |
| 20260831213553 | 93 | 0 | 0.0 | 4.0 | 0.00 | 0.00 | 0.00 | 49 | 1019.7 |
| 20260831213112 | 92 | 0 | 1.0 | 3.0 | 0.00 | 0.00 | 0.00 | 51 | 1019.9 |
| 20260831212553 | 92 | 0 | 0.0 | 6.0 | 0.00 | 0.00 | 0.00 | 50 | 1019.9 |
| 20260831212058 | 92 | 74 | 1.0 | 7.0 | 0.00 | 0.00 | 0.00 | 48 | 1019.9 |
| 20260831211605 | 91 | 97 | 2.0 | 7.0 | 0.00 | 0.00 | 0.00 | 49 | 1020.0 |
| 20260831211052 | 91 | 54 | 0.0 | 7.0 | 0.00 | 0.00 | 0.00 | 50 | 1020.0 |
| 20260831210553 | 91 | 57 | 1.0 | 7.0 | 0.00 | 0.00 | 0.00 | 50 | 1020.0 |
| 20260831210106 | 92 | 22 | 3.0 | 7.0 | 0.00 | 0.00 | 0.00 | 50 | 1020.0 |
| 20260831205553 | 92 | 0 | 1.0 | 6.0 | 0.00 | 0.00 | 0.00 | 49 | 1019.9 |
| 20260831205053 | 92 | 10 | 1.0 | 6.0 | 0.00 | 0.00 | 0.00 | 51 | 1020.0 |
| 20260831204605 | 91 | 0 | 0.0 | 4.0 | 0.00 | 0.00 | 0.00 | 50 | 1020.1 |
| 20260831204056 | 91 | 92 | 1.0 | 9.0 | 0.00 | 0.00 | 0.00 | 51 | 1020.1 |
| 20260831203556 | 92 | 90 | 0.0 | 9.0 | 0.00 | 0.00 | 0.00 | 50 | 1020.2 |
| 20260831203108 | 92 | 115 | 2.0 | 7.0 | 0.00 | 0.00 | 0.00 | 51 | 1020.2 |
| 20260831202553 | 91 | 9 | 1.0 | 6.0 | 0.00 | 0.00 | 0.00 | 52 | 1020.4 |
| 20260831202053 | 91 | 109 | 2.0 | 6.0 | 0.00 | 0.00 | 0.00 | 52 | 1020.4 |
| 20260831201605 | 91 | 360 | 3.0 | 5.0 | 0.00 | 0.00 | 0.00 | 52 | 1020.5 |
| 20260831201055 | 91 | 0 | 0.0 | 2.0 | 0.00 | 0.00 | 0.00 | 53 | 1020.5 |
| 20260831200553 | 91 | 255 | 1.0 | 3.0 | 0.00 | 0.00 | 0.00 | 53 | 1020.6 |
| 20260831200111 | 91 | 0 | 0.0 | 7.0 | 0.00 | 0.00 | 0.00 | 54 | 1020.7 |
| 20260831195557 | 91 | 107 | 2.0 | 7.0 | 0.00 | 0.00 | 0.00 | 52 | 1020.8 |
| 20260831195053 | 91 | 101 | 2.0 | 6.0 | 0.00 | 0.00 | 0.00 | 52 | 1020.8 |
| 20260831194614 | 90 | 81 | 3.0 | 6.0 | 0.00 | 0.00 | 0.00 | 53 | 1020.9 |
| 20260831194053 | 90 | 107 | 3.0 | 6.0 | 0.00 | 0.00 | 0.00 | 55 | 1020.9 |
| 20260831193554 | 90 | 37 | 0.0 | 2.0 | 0.00 | 0.00 | 0.00 | 55 | 1020.9 |
| 20260831193101 | 90 | 0 | 0.0 | 6.0 | 0.00 | 0.00 | 0.00 | 54 | 1021.0 |
| 20260831192553 | 91 | 0 | 0.0 | 7.0 | 0.00 | 0.00 | 0.00 | 55 | 1021.0 |
| 20260831192052 | 91 | 0 | 3.0 | 7.0 | 0.00 | 0.00 | 0.00 | 55 | 1021.1 |
| 20260831191605 | 91 | 107 | 1.0 | 6.0 | 0.00 | 0.00 | 0.00 | 56 | 1021.2 |
| 20260831191056 | 91 | 0 | 0.0 | 7.0 | 0.00 | 0.00 | 0.00 | 57 | 1021.1 |
| 20260831190555 | 91 | 0 | 1.0 | 7.0 | 0.00 | 0.00 | 0.00 | 56 | 1021.2 |